Lid_Strength_Index
-1 -1 -1 -1 -1 -1 -1 -1 -1 -0 -0 -0 -0 -0 -0 -1 -1 0 2 0 3 6 5 5 5 7 7 8 11 8 9 9 10 13 13 13 14 13 13 12 13 15 15 16 15 17 19 7 8 11 8 6 6 6
-0 -1 -1 -1 -1 -0 -0 -0 -0 -0 -0 -0 -0 -0 -0 -0 -1 -0 4 0 0 5 5 3 3 2 3 4 6 7 8 8 8 10 11 10 13 12 13 16 10 15 12 14 13 13 10 8 8 7 5 6 6 6
-0 -0 -0 -0 -0 -0 -0 -0 -0 -0 0 -0 -0 -0 -0 -0 -1 -0 2 1 2 5 5 5 5 3 2 2 2 7 6 5 7 5 8 9 12 10 14 13 11 10 8 11 12 11 10 8 7 7 7 7 6 6
-0 -1 -1 -0 -0 0 -0 -0 -0 0 -0 -0 -0 -0 -0 -0 -0 -0 2 1 2 5 8 7 3 4 2 2 2 3 4 4 4 5 8 9 11 8 11 10 11 10 9 11 11 10 10 9 8 8 7 7 7 7
-0 -0 0 -0 -0 0 0 0 0 0 0 -0 -0 -0 -0 -0 -0 0 0 1 1 5 9 7 5 4 3 2 3 3 4 4 6 8 9 10 8 8 8 9 11 9 10 12 12 9 10 10 9 7 8 8 8 8
-0 -0 -0 -0 -0 0 0 -0 0 0 -0 -0 -0 -0 -0 -0 -0 2 6 1 0 1 7 10 5 6 4 3 4 4 4 4 5 7 8 7 7 8 11 12 8 7 7 7 8 8 9 9 9 8 8 8 8 7
-0 -0 -0 0 0 0 0 -0 -0 0 -0 -0 -0 -0 -0 -0 1 4 5 2 0 1 7 10 9 7 5 4 5 5 4 6 6 7 8 8 8 8 10 12 8 7 6 6 6 7 10 9 9 9 9 9 11 11
1 -0 -0 -0 0 0 0 -0 0 0 0 0 0 -0 -0 -0 0 3 1 0 0 4 5 10 10 9 5 7 8 5 7 6 7 8 8 9 8 8 12 9 7 6 6 7 6 7 7 9 10 12 13 12 12 11
1 1 -0 0 0 0 0 0 0 0 0 0 -0 0 2 3 5 4 0 -0 1 4 9 9 11 12 5 7 6 7 6 10 7 9 9 8 10 12 9 8 7 7 7 7 6 8 8 10 10 11 11 13 13 12
2 1 -0 0 0 -0 0 0 -0 -0 0 2 3 5 7 4 0 1 4 6 6 6 7 9 8 10 7 7 9 8 8 10 12 10 7 10 11 7 7 6 7 7 7 8 11 11 11 10 11 12 12 12 12 13
2 1 0 0 0 -0 -0 -0 -0 0 2 4 6 6 5 2 4 6 8 9 8 10 9 8 8 9 6 10 10 7 10 10 13 11 11 12 12 8 10 10 12 13 13 12 13 13 12 11 11 12 13 12 13 14
2 2 0 0 0 0 -0 -0 0 3 4 4 4 4 4 6 9 11 12 11 10 11 11 10 9 7 8 6 9 10 11 10 14 9 12 13 10 19 19 18 17 17 16 17 16 15 15 13 11 11 12 13 14 14
3 2 1 1 1 -0 -0 -0 0 1 3 3 5 7 8 10 12 13 15 14 14 13 11 11 11 8 9 8 9 11 13 13 11 12 13 11 21 22 23 23 22 20 18 17 17 15 15 12 11 11 12 14 17 17
3 3 1 1 2 1 1 2 3 4 4 8 9 14 12 13 13 14 14 14 16 14 13 11 10 10 9 11 10 13 13 14 15 15 14 20 26 26 25 23 23 22 19 17 16 15 14 12 12 13 14 16 16 17
4 3 2 2 2 2 3 4 6 10 9 12 11 13 15 19 19 19 19 18 18 18 16 13 13 12 13 13 14 15 17 17 15 16 22 25 27 27 26 26 24 23 20 17 15 14 15 16 15 16 15 15 15 16
4 4 5 3 2 4 5 8 10 11 17 15 18 17 19 17 18 19 20 19 19 20 18 16 13 15 15 16 18 17 17 17 24 27 27 26 27 28 27 26 25 23 20 17 16 16 15 16 16 16 16 17 16 16
5 8 5 4 3 7 8 11 12 18 18 18 22 23 22 21 22 22 23 22 21 20 14 15 14 17 19 19 21 27 26 29 29 28 27 27 28 28 27 26 24 23 19 17 17 17 17 17 17 18 19 18 18 19
9 8 6 4 5 10 15 15 17 18 22 22 20 23 24 24 23 23 24 23 22 21 18 19 20 20 22 21 24 30 29 29 28 27 27 27 27 27 26 25 25 24 22 19 18 18 18 19 21 22 22 23 23 23
8 7 5 5 8 12 14 17 17 22 23 21 22 23 23 25 25 25 25 24 23 23 22 21 25 27 30 31 32 31 31 31 32 31 28 26 27 27 26 25 25 24 24 23 22 20 20 20 20 20 20 20 22 23
8 8 7 8 10 13 17 19 17 19 21 22 21 22 23 24 24 26 27 27 26 27 32 32 34 34 33 33 33 33 32 31 32 30 26 26 27 27 27 27 26 25 26 25 24 23 23 24 21 20 21 22 22 23
14 13 10 12 16 20 22 22 21 20 21 22 22 22 24 24 26 28 29 28 31 34 34 33 33 32 32 32 32 33 32 32 32 31 31 30 28 28 28 28 28 28 28 27 28 28 28 28 26 24 25 26 26 26
18 13 16 14 16 19 22 22 21 20 21 22 23 23 25 26 28 30 28 32 35 34 33 33 33 33 32 33 33 33 33 32 30 29 30 31 32 32 32 30 30 32 32 32 31 31 30 29 28 27 28 28 27 27
19 19 21 21 19 20 24 20 22 23 22 23 22 25 27 28 29 26 33 33 33 31 32 32 32 32 32 32 32 32 32 31 31 31 30 31 32 32 32 33 32 30 32 32 31 30 30 28 28 28 28 27 27 27
23 31 30 29 26 27 24 26 23 23 24 24 24 27 29 29 27 30 35 34 32 31 31 32 31 31 31 31 33 33 34 32 30 31 31 30 32 33 33 33 33 32 31 31 31 30 29 29 28 28 27 28 28 29
25 36 33 34 31 29 29 28 28 26 28 28 27 29 30 28 31 34 34 34 32 32 32 31 30 31 32 32 32 32 32 33 31 32 33 30 30 30 31 31 32 33 31 30 31 30 30 29 29 28 28 28 29 30
36 38 37 37 36 34 34 32 33 33 30 31 33 31 29 29 32 37 36 34 33 32 32 32 33 32 32 32 33 33 34 33 32 31 33 32 32 29 29 30 30 32 32 31 30 31 30 30 30 31 31 31 30 30
36 37 36 34 35 33 34 32 31 33 35 35 35 33 29 33 37 37 33 32 32 31 31 31 32 32 32 32 32 33 33 33 33 33 32 32 32 31 31 30 33 33 31 31 30 30 30 31 31 31 32 32 32 31
36 36 36 36 35 34 36 35 36 37 36 35 34 38 37 38 38 34 32 31 31 31 31 31 31 32 32 33 33 32 32 32 32 31 31 31 31 31 31 31 29 29 31 31 31 30 30 31 31 31 31 32 34 33
34 34 35 36 34 35 37 37 37 34 34 35 36 37 37 34 33 32 31 31 30 30 31 32 32 31 32 32 32 32 32 31 31 31 31 32 31 32 31 31 31 31 31 30 27 29 30 31 32 33 33 33 34 34
33 33 32 33 35 36 34 34 34 32 32 32 32 33 33 32 31 30 30 30 31 32 32 31 31 31 32 32 32 32 32 31 32 30 30 31 32 31 31 31 31 32 32 31 30 31 27 31 30 33 33 33 33 33
32 31 30 30 32 31 31 32 31 30 30 30 30 33 34 32 30 29 30 30 30 30 30 31 32 31 31 31 31 31 33 31 31 31 31 31 31 31 31 31 32 32 32 32 32 32 32 32 32 32 32 33 34 33
30 32 30 31 31 30 30 31 31 31 31 32 32 31 31 32 33 31 30 29 30 31 31 32 32 32 32 31 31 31 30 31 32 32 31 31 31 31 31 32 33 33 33 33 33 33 34 33 33 34 34 34 34 35
30 29 29 30 30 30 31 31 31 32 32 32 33 33 33 32 34 30 28 29 31 32 33 32 32 32 32 32 31 31 32 32 32 30 27 27 27 28 30 31 32 33 34 34 34 35 37 37 36 37 36 37 36 36